Theta_e
314 318 319 317 315 314 313 313 313 313 313 312 313 314 314 313 311 312 311 312 314 313 314 315 313 313 313 313 312 312 312 312 312 311 311 311 310 310 311 311 311 311 312 310 308 308 308 308 308 308 307 307 307 307 306 305 304 303 302 301 300 300 300 300 299 299 298 298 298 298 298 297 297 297 297 297 296 296 296 295 295 294 292 292 292 292
313 316 317 316 314 313 313 313 312 312 313 313 314 314 313 313 312 312 312 313 313 313 313 314 314 312 312 312 312 312 312 312 312 312 312 312 311 311 310 311 311 311 311 312 310 308 307 308 307 306 306 306 306 306 305 304 303 302 301 301 301 300 300 300 300 299 298 298 298 298 297 297 297 297 297 297 296 296 295 295 295 294 292 292 292 292
315 315 315 313 313 312 313 313 313 312 313 314 314 314 314 313 313 312 313 314 312 313 316 316 314 312 312 312 311 312 312 312 312 312 312 312 312 312 311 311 310 311 311 312 312 309 305 305 306 306 305 306 306 306 305 304 303 301 301 301 300 300 300 300 300 300 299 298 298 298 297 297 297 297 297 296 296 295 295 295 295 294 292 292 292 292
318 316 313 311 311 312 313 313 313 313 312 314 314 314 314 313 314 314 315 317 313 312 317 316 313 311 311 311 311 311 311 311 312 312 312 312 312 312 312 312 311 312 312 311 312 311 307 304 304 304 304 304 305 305 304 303 302 301 300 300 300 300 300 300 300 299 299 298 297 297 297 297 297 296 296 296 295 295 295 295 295 294 293 292 291 291
315 315 314 313 313 314 314 314 314 314 313 315 315 314 314 314 314 313 314 317 315 314 316 314 312 312 312 312 311 311 311 311 311 311 311 311 312 312 312 313 313 313 312 312 312 312 313 310 304 302 304 304 304 304 303 302 302 301 300 300 300 300 299 299 299 299 298 297 296 296 296 296 296 295 295 294 294 294 295 295 294 294 293 292 292 291
312 314 315 316 318 316 315 314 316 318 314 314 317 316 314 314 314 314 315 314 315 318 317 314 315 316 317 316 313 312 313 312 312 312 312 312 311 312 312 312 312 312 312 313 312 312 315 312 303 301 303 303 303 303 303 303 302 301 300 300 300 299 299 299 298 298 297 297 296 296 295 295 294 294 294 294 294 294 294 294 294 294 293 293 292 292
313 313 314 317 320 320 317 316 317 317 314 315 321 321 316 314 314 316 316 315 319 323 317 314 318 318 318 318 316 315 315 314 314 314 312 312 312 312 312 312 312 313 312 313 313 313 314 311 305 303 301 301 303 303 303 302 301 301 300 300 299 299 299 298 298 297 297 297 296 296 296 295 294 294 293 294 294 294 294 294 294 293 293 293 292 292
315 313 314 315 317 320 319 317 317 316 315 317 322 326 322 318 318 319 318 319 321 321 316 316 320 319 317 317 317 318 317 316 316 316 314 312 312 312 312 312 312 312 312 314 315 314 313 312 308 304 301 301 303 303 302 301 301 301 300 300 299 299 298 298 298 297 297 297 296 296 296 295 295 294 294 294 293 294 293 293 293 293 293 293 292 292
316 315 316 316 316 318 317 316 317 316 317 319 319 323 323 321 321 320 319 322 321 318 316 317 319 319 317 317 318 316 315 317 315 315 315 314 314 313 312 312 311 312 312 314 315 315 313 309 304 302 301 302 302 302 302 302 301 300 300 299 299 298 298 298 297 297 297 297 296 296 295 295 295 294 294 294 293 293 293 293 293 293 293 293 292 292
315 316 316 317 316 315 315 318 321 318 317 319 318 320 324 327 326 322 319 320 321 320 319 319 318 318 318 318 319 314 314 317 315 314 314 313 315 313 313 313 312 312 313 314 314 314 312 306 301 302 302 301 301 302 302 301 301 300 299 299 299 298 298 297 297 297 297 296 296 295 295 295 294 294 294 293 293 293 293 293 293 292 292 292 292 292
313 312 313 317 317 315 317 318 316 317 317 316 319 322 325 327 327 327 326 322 320 320 321 322 320 318 318 318 317 316 317 317 314 314 315 313 314 314 313 313 313 314 314 314 314 313 310 303 300 301 301 300 301 301 301 300 300 300 299 299 298 298 298 297 297 297 296 296 296 296 295 295 294 294 293 293 292 292 292 292 292 292 292 292 292 292
312 310 314 319 320 319 318 314 313 316 316 316 322 324 323 326 327 327 327 322 319 321 321 322 319 316 318 317 316 316 318 318 314 315 317 317 318 317 314 313 314 313 312 313 315 315 312 306 302 301 299 299 300 299 300 299 299 299 299 298 298 298 298 297 297 297 296 296 296 295 295 295 295 294 293 293 292 292 292 291 291 291 291 291 291 291
316 313 314 316 317 318 317 316 318 317 315 317 323 321 319 323 323 322 325 322 320 321 318 317 316 315 316 316 317 317 317 318 316 315 317 318 321 322 321 319 316 315 315 316 318 317 312 309 306 303 299 298 298 298 298 298 298 298 298 298 298 298 298 297 297 297 296 296 296 295 295 295 294 294 293 293 293 292 292 291 291 291 290 290 290 290
321 317 314 312 313 316 317 317 318 317 316 316 319 320 319 321 320 322 327 323 320 321 317 314 315 316 316 319 318 315 313 315 315 315 315 315 318 321 322 320 316 318 321 319 317 317 312 308 306 303 299 297 297 298 298 298 298 298 298 297 298 298 297 297 296 296 296 296 296 296 295 295 294 294 294 293 293 292 292 292 291 291 290 290 291 290
321 319 316 315 317 318 315 314 317 321 318 314 317 321 319 322 326 326 327 324 320 324 321 314 316 320 318 318 319 317 316 317 317 316 314 312 313 315 315 314 314 317 321 317 315 316 310 307 305 301 298 298 298 297 297 297 297 297 297 297 297 297 297 297 296 296 296 296 296 295 295 295 294 294 294 293 293 292 292 292 291 291 291 291 291 291
318 320 319 315 317 316 314 314 318 322 318 315 320 321 316 320 326 322 323 322 318 322 322 315 319 323 316 314 317 318 318 317 317 315 314 315 315 315 314 315 315 316 320 320 320 317 309 306 303 299 298 298 298 297 297 297 297 297 297 297 297 297 297 297 296 296 296 296 295 295 295 295 294 294 293 293 293 292 292 292 292 291 291 291 291 291
316 320 320 313 313 315 314 314 317 319 318 315 317 318 316 318 320 317 322 323 316 317 319 316 320 320 317 316 316 315 315 315 317 317 317 317 316 314 313 314 313 313 320 323 321 315 309 306 302 297 297 298 297 297 297 297 298 298 297 297 297 297 296 296 296 296 296 295 295 295 295 295 294 294 293 293 293 292 292 292 292 292 291 291 291 291
318 319 320 316 316 315 310 311 315 316 315 316 318 317 315 317 318 319 323 323 318 318 318 317 318 317 318 320 316 316 317 316 320 320 316 315 315 314 314 314 312 313 320 323 319 314 309 308 304 297 297 298 298 298 298 298 298 298 297 297 296 296 296 296 296 296 295 295 295 295 294 294 294 294 293 293 293 292 291 291 291 292 291 291 291 291
319 318 319 319 318 314 309 311 316 313 310 314 318 316 315 319 320 320 320 320 318 319 319 319 319 316 317 318 315 317 318 316 318 318 315 316 316 315 314 314 312 312 319 324 325 318 312 310 306 298 296 298 298 298 298 297 297 297 297 297 296 296 296 296 296 295 295 295 295 295 294 294 294 294 293 293 292 292 291 291 291 291 291 291 291 290
318 319 320 319 316 313 311 312 317 317 312 311 312 313 315 317 319 320 320 320 319 319 320 321 320 318 318 320 317 317 318 317 318 317 317 318 317 316 315 315 314 313 315 319 321 318 312 310 305 298 297 298 297 298 298 297 297 297 297 297 296 296 296 296 295 295 295 295 295 294 294 294 294 293 293 293 292 292 291 291 291 291 291 291 290 290
318 320 318 317 315 314 314 316 318 319 317 314 313 315 314 314 318 319 318 319 318 317 319 320 320 319 319 320 318 316 318 318 316 314 315 318 317 316 317 316 316 315 314 315 316 315 311 308 303 298 298 298 297 297 297 297 298 297 297 296 296 296 295 295 295 295 295 295 295 294 294 294 294 293 293 292 292 292 291 291 291 290 290 290 290 290
318 320 319 317 316 316 317 319 318 316 317 316 314 314 314 314 317 318 317 318 318 316 317 318 319 320 319 317 314 314 316 315 314 313 313 315 315 314 314 315 316 316 316 315 314 311 308 307 305 300 298 298 298 298 298 297 297 296 296 297 296 295 295 295 295 295 295 295 294 294 294 294 293 293 292 292 292 291 291 291 290 290 289 289 289 289
317 317 317 318 319 318 318 318 318 315 314 313 314 316 316 314 313 316 317 317 317 317 317 317 317 319 319 317 314 314 314 313 314 314 313 313 313 312 312 314 316 317 316 314 311 308 306 305 302 298 297 297 297 297 297 297 296 296 296 296 296 295 295 295 295 295 294 294 294 294 294 293 293 292 292 292 291 291 291 291 290 290 289 289 289 288
317 316 317 319 319 319 319 318 318 314 311 312 314 315 315 314 313 315 315 316 318 317 316 317 317 318 320 320 316 314 314 313 313 313 313 312 312 312 312 312 314 315 314 312 308 305 304 304 301 300 301 299 296 297 297 297 296 296 296 296 295 296 296 296 295 294 294 294 294 293 293 293 292 292 292 291 291 291 291 290 290 289 289 288 288 288
319 319 320 320 319 320 321 320 318 314 311 313 315 314 314 314 314 315 314 316 317 316 316 318 317 318 319 319 316 313 314 313 313 312 312 311 311 311 311 311 311 310 310 311 308 305 304 306 306 306 304 299 295 296 297 297 297 297 297 296 296 296 296 295 295 294 294 293 293 293 293 292 292 292 291 291 291 291 291 290 290 289 289 288 288 287
320 321 322 320 320 321 320 320 322 320 316 314 315 315 314 314 315 314 315 316 316 316 317 318 317 317 317 316 315 314 313 313 313 312 312 312 312 311 311 310 309 309 310 309 307 306 307 308 308 308 306 299 295 296 296 297 298 297 297 297 297 297 296 295 294 294 293 293 293 292 292 292 292 291 291 291 291 291 290 290 289 289 289 288 287 287
318 319 320 319 319 320 319 319 320 321 318 316 315 315 315 315 315 314 315 316 316 317 317 317 317 317 316 316 315 314 313 313 313 313 313 314 314 313 311 310 309 309 309 307 306 309 311 311 311 312 310 301 296 296 298 297 298 298 297 297 297 297 296 295 294 294 293 293 292 292 292 291 291 291 291 291 291 290 290 289 289 289 288 288 287 286
315 317 318 318 318 318 319 318 318 318 317 317 317 316 316 316 316 316 316 315 315 317 317 317 317 317 317 317 316 315 314 314 313 313 313 313 314 314 313 311 309 308 307 306 308 310 311 310 310 311 310 304 298 297 299 299 300 301 299 298 298 297 296 295 294 294 293 293 292 292 292 292 292 291 291 291 290 290 289 289 289 288 288 287 287 286
315 316 316 317 318 317 317 317 317 318 317 317 317 317 317 317 317 316 316 315 315 316 316 316 316 317 317 316 316 315 314 314 314 313 314 313 313 313 313 311 310 309 308 309 311 312 311 310 309 308 308 307 303 301 300 300 301 301 300 298 297 297 296 295 294 293 293 292 292 292 292 292 291 291 290 290 290 289 289 288 288 287 287 286 286 286
314 315 316 316 317 316 317 317 316 317 317 317 317 317 317 317 317 317 316 315 315 316 315 315 316 316 316 315 314 314 313 313 314 313 313 312 312 312 312 311 310 309 309 310 311 311 310 309 308 307 307 308 306 302 299 299 300 300 301 300 298 296 295 295 294 293 293 292 292 292 292 291 291 290 290 289 289 289 288 288 287 287 286 286 285 285
313 315 316 316 317 317 316 316 316 316 317 316 317 316 316 317 317 317 316 316 316 316 315 315 316 315 314 313 313 313 313 313 312 312 312 311 311 311 309 308 308 306 306 307 306 306 305 305 305 305 305 305 303 300 298 299 301 301 301 300 297 296 295 294 294 293 292 292 292 292 292 291 290 290 289 289 289 288 288 287 286 286 285 285 284 284
312 313 314 315 317 317 316 316 315 315 316 316 316 316 316 317 316 316 316 316 316 317 316 316 317 316 314 313 313 312 312 312 312 312 311 310 309 307 305 304 304 303 302 302 301 301 301 301 301 302 302 303 301 300 300 302 302 302 300 299 297 295 294 293 293 293 292 292 292 292 291 291 290 289 289 288 288 288 287 286 285 285 284 284 283 283
310 311 312 313 315 315 316 316 315 315 317 317 316 315 314 315 316 315 315 315 315 316 317 317 316 313 310 309 310 310 309 310 311 310 308 305 302 301 301 301 301 301 300 300 300 299 299 298 298 299 299 299 299 300 301 301 301 301 300 299 297 294 292 292 292 292 292 292 291 291 290 290 289 289 288 288 287 287 286 285 284 284 283 283 283 282
308 309 309 311 312 313 314 314 313 314 315 316 318 317 314 315 315 315 315 316 314 312 312 312 309 304 303 302 302 302 301 302 304 303 300 298 298 298 299 298 299 299 299 299 298 298 297 297 296 296 296 296 297 298 299 299 299 299 299 299 297 294 292 291 291 291 291 291 290 290 290 289 289 288 288 287 287 285 285 284 283 283 283 282 281 281
307 307 307 308 310 310 310 311 312 312 311 314 320 318 312 312 312 313 315 312 305 300 301 305 303 298 297 298 298 297 297 297 299 299 297 296 295 295 296 296 296 297 298 298 297 296 297 296 295 295 295 295 296 297 297 298 298 297 297 298 297 295 292 291 290 290 290 290 289 289 289 289 288 287 287 286 285 284 283 283 282 282 282 281 280 280
306 306 306 307 307 309 309 310 311 312 310 313 317 311 305 306 305 308 311 304 294 293 297 300 299 295 294 295 296 295 294 295 299 299 296 294 294 294 294 294 295 296 296 296 296 295 296 295 294 294 294 294 295 295 296 297 296 295 295 296 296 294 292 290 289 289 289 289 289 289 288 288 287 287 286 285 284 283 282 282 282 281 281 280 279 279
306 306 306 307 308 309 310 309 310 310 310 311 309 303 300 300 299 302 307 300 292 292 296 297 296 295 293 294 295 295 294 295 299 299 295 293 293 293 293 293 294 295 295 294 294 294 294 293 293 293 293 294 294 295 296 296 295 294 294 294 294 292 290 289 288 288 288 288 288 288 288 287 287 286 285 284 283 282 282 281 281 280 280 279 278 278
305 306 306 308 309 308 309 309 309 311 311 305 298 296 297 298 296 298 304 301 293 292 295 296 295 294 293 293 294 294 293 293 295 295 293 293 293 293 293 293 293 293 293 293 293 293 293 293 293 293 293 294 294 295 295 295 294 293 293 292 291 290 289 288 287 288 288 287 287 287 287 287 286 285 284 283 282 282 281 280 280 279 279 279 278 277
303 306 306 307 308 307 307 305 304 306 306 298 294 296 297 296 295 299 306 303 294 292 294 295 293 293 293 293 293 293 293 293 293 293 292 292 292 292 293 292 293 293 292 292 292 292 292 292 292 293 293 293 294 295 295 294 293 292 291 291 290 288 287 287 287 287 287 287 287 286 286 286 285 285 284 282 282 281 281 280 279 279 278 278 277 277
302 304 305 304 304 305 304 303 301 303 301 295 295 297 295 294 298 304 309 303 294 292 295 294 293 293 293 293 293 293 293 293 293 292 292 292 292 292 292 292 292 292 292 292 292 292 292 292 293 293 293 293 293 294 294 294 292 291 291 290 288 287 288 289 288 287 287 287 286 286 286 285 284 284 283 282 281 281 280 279 279 278 277 277 277 276
299 300 300 300 300 301 302 301 302 302 298 294 295 296 294 295 298 300 301 297 293 293 295 294 293 293 293 293 293 293 293 293 292 292 292 292 292 292 292 292 292 292 292 292 292 292 292 292 292 292 292 293 293 293 294 294 291 290 290 289 287 288 290 290 288 287 287 286 286 286 285 284 284 283 283 282 281 280 279 279 278 277 276 276 276 275
296 296 298 299 298 298 298 297 298 300 299 294 293 294 293 293 293 292 293 295 295 295 295 294 293 293 292 293 293 292 292 292 292 292 292 291 291 291 291 291 291 291 291 291 291 291 292 292 292 292 292 292 293 293 294 293 291 290 289 288 288 290 291 289 288 287 287 286 286 285 285 284 283 283 282 281 281 280 279 278 277 276 276 275 275 274
294 294 294 296 295 295 295 295 296 298 297 294 292 292 292 292 290 290 292 295 296 296 295 294 293 293 293 292 292 292 292 292 292 292 291 290 290 289 289 290 290 290 290 290 290 290 291 291 291 291 291 292 292 293 293 293 291 291 289 289 291 293 291 289 288 287 286 286 285 285 284 283 283 282 281 281 280 279 278 277 276 275 275 275 274 274
293 292 292 294 295 294 293 295 296 295 294 293 293 292 292 291 290 291 294 295 296 295 294 293 293 293 293 292 292 292 291 291 290 290 289 288 288 288 288 289 289 289 289 289 289 289 290 290 290 290 291 291 292 292 293 293 292 291 290 291 293 294 291 290 289 287 286 286 285 284 283 282 282 281 281 280 279 278 277 276 275 275 274 274 274 273
293 293 292 293 294 293 291 292 293 292 292 293 293 292 291 290 290 293 296 296 294 293 293 292 292 292 291 291 291 291 289 288 288 287 287 286 287 287 287 287 287 287 287 288 288 288 288 289 289 289 290 290 291 291 292 292 292 291 291 292 294 293 292 290 289 287 286 285 284 283 283 282 281 280 280 279 278 277 276 275 274 274 273 273 273 273
292 292 291 291 291 291 290 291 291 291 292 291 290 290 289 289 290 294 296 295 293 292 291 290 290 290 290 290 289 288 287 286 286 285 285 285 286 286 286 286 286 286 287 287 287 287 287 287 288 288 289 289 289 289 290 291 292 291 292 293 293 293 291 289 288 287 286 285 283 283 282 281 280 279 278 278 278 277 276 275 274 274 273 273 273 273
291 291 290 290 290 290 290 290 290 290 290 289 289 289 289 289 290 293 294 293 292 290 289 288 288 288 288 287 286 285 285 284 284 284 284 284 284 284 285 285 285 285 285 285 285 285 286 286 286 287 287 287 287 288 289 290 290 291 291 292 293 292 290 288 287 286 285 284 282 281 280 280 279 278 277 277 276 276 276 275 274 274 273 273 272 273
291 291 291 290 290 289 289 289 289 289 289 288 288 288 288 288 290 291 291 290 289 287 286 286 286 286 285 284 284 283 283 283 283 283 283 283 283 283 283 283 283 284 283 283 283 283 284 284 284 285 285 286 286 287 287 288 289 290 290 291 292 292 290 287 286 286 284 283 281 280 279 279 278 277 276 276 276 275 275 274 274 274 274 273 273 273
290 291 291 290 290 290 289 289 289 289 288 288 288 288 288 289 290 290 289 287 285 284 284 284 284 284 283 282 282 282 282 282 282 281 281 281 281 281 281 282 282 281 281 281 281 281 281 282 282 283 283 284 284 284 285 286 287 288 289 290 291 291 289 287 286 285 283 282 280 279 278 277 277 276 275 275 275 275 275 274 274 274 274 274 273 273
289 289 290 290 289 289 289 289 289 288 288 288 288 288 290 291 288 287 286 284 282 282 283 282 282 281 280 280 280 280 280 280 279 279 279 278 279 279 280 280 280 279 279 279 279 279 279 279 280 280 280 280 281 281 283 283 284 285 287 288 290 290 288 286 285 283 281 280 278 277 277 276 276 275 275 274 274 274 274 274 273 273 274 274 273 273
289 289 289 289 289 289 289 288 289 288 288 288 288 289 290 288 285 283 282 280 280 280 280 279 278 278 278 278 278 278 278 277 277 277 277 277 277 278 278 278 277 277 277 277 277 277 277 277 277 277 277 277 278 279 279 280 280 281 282 283 286 287 287 286 284 282 281 279 278 277 276 275 275 274 273 273 274 273 273 273 273 273 273 273 273 273
Wind_Speed
4 4 3 7 12 13 11 13 17 15 9 5 5 6 8 8 8 10 14 11 5 5 9 12 16 17 16 17 17 15 12 13 16 15 14 12 11 13 12 13 14 15 17 17 19 19 19 23 27 31 34 34 34 35 37 39 41 43 43 43 43 43 43 44 43 43 42 41 39 39 40 41 41 40 40 38 38 37 37 35 34 34 34 33 32 31
3 6 9 16 17 13 9 11 13 10 7 6 6 8 8 7 11 12 13 13 5 5 9 11 15 17 15 16 15 13 13 15 17 17 18 15 12 12 13 16 16 15 15 15 14 14 17 20 23 28 31 33 34 36 39 41 43 43 43 45 45 44 45 46 46 46 45 45 44 42 43 42 41 41 41 40 40 39 38 37 36 35 35 34 33 33
3 6 15 20 13 5 3 5 7 8 8 7 5 6 7 6 11 11 10 14 5 4 7 10 13 15 14 14 13 13 16 17 17 17 19 16 12 13 14 15 17 15 15 16 16 13 13 18 21 25 29 34 37 38 40 41 41 42 42 44 44 45 47 47 47 47 46 45 44 42 40 40 39 39 41 40 40 39 39 38 36 35 35 35 34 33
5 8 17 15 4 3 7 5 5 5 5 6 6 5 7 7 8 7 6 8 4 3 6 9 11 12 11 11 11 15 19 17 16 17 18 15 13 16 16 15 15 16 16 17 17 13 10 13 18 23 28 32 33 33 36 37 39 41 43 44 44 46 47 48 47 47 45 42 40 37 36 37 37 36 37 36 37 39 39 38 37 36 37 36 35 34
10 8 8 7 6 8 11 8 5 6 6 8 8 8 11 11 11 10 6 6 5 4 5 6 12 11 9 12 13 13 16 16 15 16 17 15 15 16 16 16 16 17 18 17 17 13 8 10 16 22 26 28 30 32 36 40 41 43 44 45 45 45 46 47 47 45 43 39 37 33 29 30 31 30 32 34 35 38 39 39 40 39 38 37 36 35
11 6 4 6 8 9 9 8 7 8 9 7 8 13 17 14 12 12 9 7 5 5 4 2 9 9 7 12 13 10 10 12 11 13 17 17 15 13 15 17 17 17 17 16 16 12 8 9 13 19 23 26 30 34 39 42 43 43 43 44 44 44 45 44 44 43 42 41 39 37 33 33 32 29 33 39 40 40 42 42 41 40 38 37 36 35
7 7 7 9 9 9 8 7 8 10 9 8 6 13 15 12 9 10 8 4 2 5 3 3 2 10 6 7 11 9 9 11 10 12 15 16 14 12 13 15 16 15 14 12 13 11 10 10 10 15 22 28 31 35 37 38 40 40 41 43 44 44 44 43 43 44 43 42 42 43 42 40 38 35 37 40 39 40 41 40 39 39 38 37 36 36
5 7 8 9 8 7 6 8 10 10 7 7 4 8 10 9 8 7 6 5 4 3 3 3 5 8 13 7 10 12 11 11 12 14 15 15 14 12 13 15 15 16 12 9 10 11 11 11 11 15 23 30 32 32 33 35 38 39 40 42 43 43 43 43 44 45 46 46 45 45 42 40 40 39 37 36 36 37 39 38 39 40 39 39 38 37
5 6 9 10 7 5 8 11 8 11 7 7 3 6 6 6 6 5 5 4 2 4 4 4 6 4 14 6 8 10 10 10 13 16 18 17 15 14 14 15 15 15 12 8 10 12 11 11 14 19 24 29 30 30 33 36 38 38 39 40 41 41 42 43 45 47 48 47 45 44 41 39 39 38 34 34 35 36 37 38 39 40 40 40 39 38
2 4 7 9 7 8 10 7 7 12 9 5 5 5 4 3 2 4 2 2 3 5 6 7 7 3 12 4 5 4 6 9 13 14 15 15 13 13 13 13 13 12 11 10 11 11 10 11 16 20 21 24 27 29 32 34 35 36 37 38 40 41 41 42 44 46 47 46 44 43 43 41 38 35 32 32 33 35 37 38 39 40 40 41 40 39
3 0 3 6 5 6 5 2 3 7 6 3 6 5 6 5 5 4 2 4 2 8 7 10 12 7 8 4 5 5 5 8 9 8 10 11 12 13 12 11 12 12 10 9 9 8 7 9 13 17 18 20 24 26 28 30 33 35 36 38 40 40 40 41 43 45 46 45 44 44 45 43 40 37 34 33 34 36 37 38 39 39 40 40 41 40
4 2 2 3 3 4 5 3 2 2 3 5 4 3 3 4 4 4 4 4 1 9 6 10 13 10 9 7 3 5 5 5 7 8 10 11 13 13 11 11 12 11 8 7 7 7 5 6 10 13 15 18 22 24 27 30 32 34 35 37 38 39 40 41 43 45 46 46 46 45 45 44 42 40 39 39 39 39 40 40 39 38 38 39 40 40
4 7 6 2 1 5 6 3 3 6 3 4 4 4 1 4 3 2 4 1 4 9 4 6 7 7 11 8 4 9 10 6 8 9 11 12 12 11 11 12 10 7 5 6 7 7 6 7 9 10 13 18 22 26 29 31 32 34 35 37 38 40 42 42 42 45 46 46 48 47 45 44 42 41 42 42 42 42 43 42 40 40 40 40 41 42
4 6 5 3 3 5 8 6 3 2 3 6 6 6 5 3 2 3 4 3 5 7 3 3 4 5 8 5 8 14 14 10 8 9 11 12 11 11 10 10 9 8 7 7 6 6 7 8 9 10 14 18 22 26 29 30 33 34 34 36 39 40 41 42 43 45 46 47 49 48 46 44 42 42 43 43 43 43 43 43 43 44 43 43 45 46
4 9 5 8 3 6 12 12 8 5 5 7 5 5 5 6 5 4 5 6 7 5 4 1 4 4 4 3 7 10 8 8 5 7 8 8 9 10 9 10 11 11 8 4 4 7 8 9 9 10 14 19 22 25 28 30 32 33 34 38 40 39 40 43 44 44 46 48 48 47 46 44 44 43 43 43 42 42 44 44 44 45 45 46 47 47
4 10 6 4 2 9 13 10 7 7 2 4 3 4 4 5 6 4 6 6 3 2 4 3 4 5 4 5 8 8 8 9 7 7 7 8 11 10 10 11 12 11 7 3 4 7 8 8 8 9 14 18 21 24 28 31 33 35 37 39 41 41 41 42 43 45 47 47 45 45 46 45 44 43 42 42 42 43 44 45 45 46 46 46 46 46
4 7 3 1 1 6 8 5 5 5 4 2 3 4 4 4 6 5 6 2 1 4 7 5 7 5 4 9 8 3 6 8 8 8 8 10 11 9 10 11 11 11 8 4 6 7 7 7 7 10 14 17 21 26 31 35 38 41 41 40 41 40 38 40 43 45 46 44 44 45 46 45 45 45 45 45 44 43 42 43 45 45 45 45 45 45
6 7 4 5 5 4 1 1 1 2 3 5 4 6 3 3 2 3 2 1 2 8 7 7 15 10 4 8 5 5 4 7 8 8 7 8 9 8 9 10 11 11 8 6 7 7 8 8 8 11 15 20 25 29 33 36 38 39 38 39 40 39 40 44 46 45 44 43 43 44 45 46 47 47 46 45 42 40 40 42 44 45 45 46 46 46
4 8 7 3 3 2 4 2 3 4 1 4 3 3 3 1 3 3 3 3 6 10 5 7 16 12 7 9 6 5 8 8 8 7 6 7 8 7 9 10 12 11 8 7 8 8 8 9 10 12 16 21 25 28 30 31 31 32 36 38 38 40 43 43 41 41 42 43 44 45 46 46 47 46 45 43 40 39 41 43 45 46 47 47 47 46
1 5 6 1 1 2 3 0 4 3 2 2 3 3 1 3 4 4 3 3 5 10 8 8 11 9 8 7 5 8 9 7 7 6 6 7 7 7 8 8 10 10 9 8 9 9 10 10 11 13 18 20 22 24 25 25 28 33 36 35 36 38 38 38 38 41 42 44 45 45 44 45 46 46 45 43 40 40 43 44 44 45 46 47 48 48
2 4 6 1 2 1 1 3 5 5 4 1 3 4 3 2 1 1 2 1 3 8 8 8 9 8 6 4 6 8 7 7 7 4 6 7 7 9 9 9 9 9 9 10 10 11 10 9 10 14 18 18 18 20 22 26 30 32 32 34 36 37 36 37 40 42 43 45 45 45 44 45 46 46 44 43 42 42 44 43 43 44 44 44 47 48
1 3 4 2 3 4 4 5 6 7 6 5 5 6 6 6 4 4 7 5 4 6 7 8 9 7 4 4 6 7 6 7 7 6 8 10 12 14 13 12 11 9 10 11 12 11 9 9 9 11 14 15 16 19 23 26 28 29 31 35 37 36 37 40 42 44 45 45 44 45 46 45 44 43 43 43 42 43 44 43 43 43 43 43 45 47
3 1 3 5 6 6 8 7 5 6 5 4 4 4 5 5 5 7 9 6 3 4 5 7 9 5 2 7 12 10 10 12 10 8 11 14 14 14 12 12 10 10 11 12 13 11 8 8 8 8 10 13 16 20 22 24 27 29 32 34 33 35 40 44 45 45 44 41 42 44 44 42 41 41 42 43 43 44 45 44 43 43 43 44 44 45
4 3 2 5 4 5 8 8 6 4 3 3 4 4 5 5 6 8 7 2 2 5 5 7 10 5 1 5 13 15 18 18 12 10 12 13 12 10 9 10 10 11 12 12 12 9 6 6 6 6 8 10 13 18 20 22 25 27 30 31 33 38 44 45 44 43 40 40 42 42 41 40 40 40 41 43 45 46 45 43 42 42 43 43 43 44
4 3 3 1 4 5 5 5 4 3 3 4 4 5 6 7 7 7 3 1 4 8 9 11 11 6 4 7 12 16 22 23 20 15 11 10 11 10 9 10 12 12 12 14 11 6 6 7 6 7 7 7 11 16 19 22 25 28 32 34 36 41 44 43 41 40 40 41 41 39 40 41 40 41 43 45 46 46 45 43 42 43 43 43 42 44
5 5 5 5 8 9 9 7 5 4 3 3 4 7 9 11 12 10 6 6 8 10 13 13 11 10 11 12 16 20 23 25 26 23 15 10 10 11 10 11 12 12 13 13 8 5 6 7 7 9 8 8 13 17 19 23 26 29 32 35 38 40 41 39 38 39 39 40 39 39 41 41 41 43 45 47 47 46 45 44 43 43 44 44 43 43
1 4 8 13 14 13 14 14 10 8 8 8 9 13 14 15 17 14 10 12 13 13 14 14 15 17 17 16 19 23 24 24 26 27 21 13 10 11 11 11 12 12 12 10 6 6 7 7 9 11 9 10 14 18 21 23 24 25 28 34 37 38 38 36 36 38 39 40 39 40 41 42 44 46 47 47 46 45 44 44 44 44 45 45 44 44
1 5 11 17 19 18 18 20 18 15 16 16 17 19 19 19 20 18 16 18 16 15 15 15 18 21 19 17 21 23 24 24 24 24 22 18 14 11 10 10 11 11 9 5 5 8 8 9 10 11 10 10 12 16 19 20 22 25 28 33 35 35 36 36 35 37 40 39 39 41 42 44 46 47 46 44 42 42 42 43 44 45 45 44 45 45
3 8 12 16 19 20 19 21 20 19 18 18 18 20 21 22 23 22 23 23 19 17 17 17 19 22 18 17 21 24 25 25 23 22 21 19 17 14 13 13 11 8 7 6 8 9 9 10 12 12 12 12 11 15 18 20 24 26 29 33 34 34 36 36 35 37 38 37 39 42 43 43 44 43 41 40 40 40 41 42 43 43 43 44 45 45
3 6 11 16 19 20 20 21 21 21 21 19 20 22 23 24 26 27 26 25 23 23 23 22 25 25 19 17 21 23 23 21 19 18 18 18 19 18 17 16 12 9 8 8 9 10 10 12 14 15 16 16 15 16 18 20 24 27 30 34 33 32 34 34 35 37 37 37 41 42 41 41 40 39 39 40 41 41 42 42 42 43 43 44 45 44
4 5 9 13 14 14 17 19 20 21 21 22 23 24 24 25 26 26 24 21 21 24 26 26 27 23 18 20 23 22 21 19 16 17 18 19 19 16 13 11 11 11 10 8 9 10 11 12 13 15 16 15 15 16 18 22 26 28 31 33 32 32 34 34 36 37 38 39 42 41 39 38 37 38 39 40 41 41 42 42 42 43 43 43 43 43
4 4 5 8 9 9 11 16 20 22 23 24 25 25 25 25 23 22 22 20 20 22 24 24 21 17 15 18 20 19 19 18 18 20 19 15 12 10 11 11 11 12 12 12 12 13 13 13 13 14 14 15 17 20 23 26 28 28 29 32 33 32 32 33 35 36 36 38 39 37 37 37 37 38 40 40 41 42 42 42 42 42 42 42 43 43
4 4 4 6 8 8 8 11 15 15 15 15 16 21 25 24 22 21 19 20 23 22 19 17 14 9 8 8 9 11 13 13 14 13 10 9 10 10 10 11 11 11 11 12 12 13 12 12 12 13 14 16 19 24 28 30 30 30 31 31 28 26 27 31 34 34 35 36 35 34 35 36 36 38 39 40 41 41 40 41 41 42 43 43 43 43
7 8 7 6 6 7 7 9 11 10 10 8 7 13 20 23 24 24 22 23 22 14 9 6 5 10 13 12 11 11 12 13 11 6 7 9 10 10 10 10 10 10 11 11 13 13 12 12 13 15 19 23 26 29 31 31 30 32 35 30 22 19 24 28 31 31 32 32 32 33 34 35 36 37 38 38 39 39 39 41 41 41 41 41 41 41
10 11 9 7 7 9 9 10 11 11 9 6 3 5 10 14 16 19 20 15 9 11 12 9 11 14 13 11 10 9 12 15 9 3 9 11 11 12 12 12 11 11 11 11 13 14 13 13 14 16 21 27 31 31 31 31 31 32 33 31 23 20 22 25 27 29 30 30 31 33 34 36 37 37 36 36 37 37 38 39 39 39 40 40 41 42
11 10 8 6 8 9 8 9 12 10 6 3 1 5 7 6 8 11 10 6 12 13 10 8 11 13 12 12 12 10 14 15 5 4 9 14 13 12 12 13 13 12 11 11 12 12 13 15 16 19 23 29 32 32 30 33 35 32 31 30 24 21 20 21 24 26 27 28 30 33 35 36 36 34 34 34 35 36 37 38 38 39 39 39 39 39
11 9 7 6 7 8 10 12 13 14 12 7 2 7 7 5 7 7 3 3 10 10 8 8 12 13 11 11 12 12 14 13 5 2 10 16 14 13 12 12 12 12 12 12 13 15 17 20 22 24 27 30 31 31 31 35 37 33 29 26 20 18 16 17 20 23 25 27 30 33 34 35 34 33 33 34 35 36 37 38 38 38 38 38 37 37
7 9 8 7 6 7 11 12 10 13 11 3 5 8 7 7 9 7 5 2 7 9 8 8 11 12 10 10 12 12 12 11 8 8 12 15 15 14 13 13 12 12 12 14 16 18 22 24 25 27 29 30 31 33 35 38 37 32 26 21 15 13 12 15 19 22 24 26 28 29 30 32 33 33 33 35 37 38 37 36 36 36 38 38 38 37
4 6 7 7 6 7 10 9 9 10 4 5 8 10 9 12 13 7 5 3 6 7 6 6 8 9 9 10 11 10 9 9 8 9 11 14 15 13 13 13 13 14 16 18 18 19 23 26 27 28 30 29 32 37 39 39 37 30 25 20 14 10 12 16 20 20 21 22 23 24 26 28 30 31 32 34 34 34 34 34 34 35 36 37 36 35
5 2 4 6 8 9 11 10 8 5 1 6 8 9 9 13 11 4 5 1 7 4 1 3 6 6 5 6 7 6 5 6 8 10 12 14 13 11 11 12 13 14 16 20 22 23 25 25 24 24 26 27 32 38 40 39 36 29 25 21 14 12 16 19 19 17 18 20 19 21 24 26 28 29 30 30 29 29 31 32 32 33 34 33 33 32
2 2 3 5 8 9 10 10 7 2 3 4 7 8 10 9 4 2 5 6 8 5 3 1 4 5 3 4 5 3 4 6 8 12 13 12 12 11 10 11 14 15 16 20 25 27 27 25 23 23 24 26 32 36 38 36 31 27 26 20 15 18 22 20 17 15 16 17 18 20 23 26 28 28 29 29 29 29 30 31 32 33 35 34 31 31
2 2 3 4 5 5 5 7 9 5 2 7 11 8 7 5 2 4 6 4 6 7 5 4 5 4 4 5 4 4 6 6 7 10 11 10 12 13 13 12 13 15 17 20 24 25 25 25 26 26 26 28 30 32 35 33 28 26 24 19 19 25 25 20 16 14 14 15 17 19 22 26 27 28 28 29 30 31 30 31 32 33 34 33 31 31
3 4 4 4 4 4 5 6 8 7 3 12 14 7 4 2 4 7 6 4 6 7 7 6 4 3 4 5 5 6 7 7 7 8 9 10 12 13 13 14 13 14 16 19 21 23 22 22 23 25 27 30 30 30 31 30 27 26 22 20 26 31 26 20 17 14 13 15 16 18 21 24 26 28 29 29 31 32 31 30 31 32 32 32 31 30
3 3 4 4 3 2 4 5 5 6 8 11 9 4 2 3 5 6 5 4 5 5 5 5 3 4 4 5 6 6 6 7 8 7 8 10 11 12 13 13 13 13 15 17 20 23 23 21 21 25 28 29 29 29 30 28 26 26 23 25 32 32 25 22 18 14 14 15 16 17 20 22 24 26 28 29 31 31 30 30 31 30 31 31 30 29
4 4 4 5 3 3 5 7 8 8 7 6 5 5 7 9 8 7 6 5 5 3 2 2 3 5 5 5 6 6 6 7 9 9 9 10 10 10 11 12 13 14 15 18 21 23 23 22 23 25 27 28 28 29 30 29 27 25 25 30 34 30 25 22 19 16 16 16 16 17 19 22 24 26 27 29 31 32 31 31 31 30 30 30 31 30
5 5 4 3 4 6 7 9 9 7 6 8 8 8 8 10 10 7 6 5 4 3 2 2 4 6 6 5 5 5 6 8 9 10 10 10 10 10 10 10 12 14 15 17 20 23 24 24 24 24 25 28 30 28 29 31 29 27 30 35 35 30 26 22 20 19 18 17 18 19 20 22 23 25 27 28 31 32 32 34 34 32 30 33 34 32
5 5 5 4 5 6 7 8 9 8 9 11 11 11 10 9 8 6 4 4 4 3 3 4 5 5 5 5 6 7 9 9 10 10 9 8 9 11 11 11 11 13 15 17 21 24 24 21 20 20 22 27 30 29 28 30 31 32 35 37 36 32 27 22 21 20 20 20 20 20 22 24 25 26 28 29 30 30 29 32 34 32 31 36 38 32
4 3 4 6 8 7 8 11 12 12 13 13 11 10 8 7 7 6 4 3 2 1 3 4 4 5 5 6 8 9 10 11 10 9 9 9 9 10 11 11 11 13 17 21 23 25 23 20 20 21 22 25 30 32 31 31 33 34 35 36 37 33 27 24 23 22 22 21 21 22 24 25 27 27 28 30 31 30 29 29 31 31 32 38 43 37
2 1 3 7 7 7 9 12 13 13 13 12 11 9 6 6 6 6 4 1 1 3 5 5 5 5 5 8 9 8 10 11 10 9 9 10 10 10 10 11 12 14 18 22 23 24 23 22 22 22 23 28 32 33 32 32 34 34 33 33 35 32 27 25 24 23 22 21 21 22 23 24 26 27 28 28 28 29 30 29 29 29 28 31 38 40
3 6 8 6 5 7 10 12 12 10 9 9 10 8 6 6 5 4 4 3 2 4 4 5 6 6 7 8 8 7 9 10 10 10 10 10 11 12 12 12 12 15 19 23 24 25 25 25 25 25 27 32 34 33 32 33 35 35 33 32 32 30 27 26 23 21 21 21 20 22 23 23 25 26 27 26 25 25 26 27 27 28 26 26 31 35
7 9 9 7 9 11 12 12 11 8 8 10 12 9 5 4 2 2 3 3 3 4 3 4 7 8 9 8 7 7 9 10 11 11 10 10 12 13 15 15 14 14 19 23 23 23 24 25 27 27 29 33 35 34 34 35 36 38 38 35 32 30 28 26 22 20 20 21 23 24 25 24 24 24 25 25 24 23 22 22 23 24 24 23 25 28
Wind_Direction
143 136 168 208 224 225 210 199 215 232 243 248 245 252 252 257 266 257 266 267 203 226 242 232 247 250 249 254 256 263 268 267 267 266 259 251 253 257 253 251 251 251 255 258 256 250 240 231 224 221 218 215 215 212 208 205 203 203 200 198 197 198 197 195 195 197 197 197 197 198 201 204 206 207 208 210 212 214 214 213 212 211 209 205 203 203
144 169 208 223 225 224 213 209 223 240 252 254 245 261 265 253 264 258 264 274 221 199 253 242 253 257 250 253 256 261 266 262 260 261 261 254 245 251 253 252 251 250 258 266 264 246 234 229 220 216 212 207 207 206 205 204 202 201 199 198 197 195 195 196 197 197 198 200 199 199 201 203 204 205 207 209 211 214 215 214 214 212 210 207 205 205
180 206 226 229 227 234 241 203 215 233 232 238 236 259 268 251 269 266 252 269 245 175 259 254 255 260 253 254 255 256 257 256 255 253 258 258 249 249 248 249 253 253 259 263 262 249 229 223 215 209 207 206 207 205 203 202 200 197 197 197 196 194 195 197 198 199 200 202 202 202 202 202 203 205 208 210 212 213 214 214 213 213 211 209 207 206
201 227 234 232 210 218 251 228 209 250 235 216 221 244 260 246 261 267 243 268 263 195 262 268 265 265 260 261 254 250 252 255 258 255 257 257 248 249 247 248 254 254 255 256 258 255 222 214 211 205 205 205 205 202 199 198 196 195 196 197 196 196 196 197 199 200 200 200 200 203 204 203 203 206 208 210 212 213 213 212 212 213 213 210 208 207
230 235 228 207 177 203 235 242 225 260 254 214 209 225 247 245 243 253 268 306 303 272 285 288 284 273 238 246 250 246 250 253 256 257 260 256 245 249 255 253 251 251 253 252 255 253 218 207 210 206 205 202 199 199 198 197 196 196 197 197 196 196 197 198 198 198 197 196 195 196 197 198 201 204 204 205 209 210 211 211 211 212 212 210 209 208
247 236 153 165 195 204 217 236 220 228 252 244 213 220 236 244 246 255 280 324 321 292 312 341 297 285 202 216 241 243 247 251 251 251 255 256 248 246 254 256 251 248 250 251 255 251 223 211 210 206 203 198 198 201 201 199 197 197 196 196 196 196 197 198 197 196 195 194 193 191 189 190 194 198 201 204 206 206 208 210 210 210 211 211 210 209
244 219 186 189 200 196 201 239 224 206 241 271 228 217 230 239 245 251 266 297 258 258 286 101 283 285 256 212 227 231 240 247 251 251 251 254 251 239 241 252 254 253 249 245 250 246 224 212 203 203 202 198 201 204 201 199 197 197 196 195 196 196 197 197 196 196 195 194 195 196 196 196 196 199 204 207 207 207 207 208 209 210 211 212 212 211
203 204 206 202 193 181 193 238 225 186 212 267 231 195 207 221 227 217 208 218 230 274 298 143 146 274 280 245 201 209 221 238 248 251 252 252 250 244 241 245 250 254 251 234 238 238 224 213 202 203 203 201 204 202 198 196 196 196 196 196 196 197 197 197 197 197 197 198 198 199 200 201 203 205 208 208 207 208 208 207 209 210 211 212 212 213
164 193 207 190 179 190 207 227 203 156 195 253 197 158 170 191 201 167 164 202 281 344 293 199 139 265 280 252 171 198 208 225 239 241 247 249 249 249 246 246 247 253 254 233 229 233 220 211 208 205 203 203 203 199 197 197 197 196 196 196 196 197 198 198 198 198 200 201 201 200 201 204 207 209 210 208 206 207 207 207 208 209 210 211 211 213
168 205 193 166 173 212 219 226 173 161 204 233 120 100 69 69 71 89 123 115 36 313 257 200 154 239 282 284 124 169 196 221 235 235 246 252 255 257 253 254 255 255 255 237 231 233 219 214 213 205 201 202 201 200 199 197 195 195 195 195 196 198 199 199 200 200 201 202 202 203 204 206 207 207 208 207 205 205 205 206 206 207 209 210 210 212
232 195 151 168 189 202 187 160 166 175 189 137 102 65 30 18 26 46 25 70 39 281 243 187 175 187 274 292 133 170 198 212 224 232 254 262 262 263 259 259 256 250 248 241 237 236 221 214 206 198 198 199 198 198 198 195 195 195 195 196 197 199 200 200 201 202 202 203 204 206 207 208 207 205 203 203 202 203 203 204 205 206 207 208 209 210
250 209 204 219 180 132 112 103 2 22 112 116 107 78 29 333 5 27 352 54 169 264 238 186 179 179 236 258 185 229 242 206 207 221 238 247 252 258 261 258 254 253 251 248 242 227 202 189 187 190 195 194 192 194 195 195 195 195 196 197 198 200 202 202 202 203 204 205 207 209 210 211 209 206 204 203 203 202 202 203 204 204 205 206 208 209
271 218 208 227 169 147 128 118 350 356 59 108 114 117 95 299 338 356 310 57 213 258 254 176 173 203 243 249 236 262 270 237 209 215 226 235 245 253 258 257 263 280 264 240 231 213 195 191 186 189 193 191 191 193 194 194 194 196 197 198 199 202 203 203 204 205 206 207 209 211 212 213 212 210 209 207 206 205 204 203 202 202 203 203 205 207
293 259 183 148 263 180 151 169 230 274 176 158 154 154 170 211 235 256 265 270 255 266 288 153 167 253 280 273 228 238 257 257 226 218 228 232 241 251 259 269 289 297 264 235 221 207 203 202 195 193 194 193 194 195 194 194 195 196 198 200 203 205 205 204 206 206 207 209 211 212 213 213 213 213 213 212 210 208 206 205 204 204 204 204 205 207
259 281 194 162 224 180 176 200 197 150 165 187 163 146 181 188 177 207 229 247 260 279 308 210 177 235 287 294 233 230 262 286 258 240 253 257 262 271 282 289 288 280 273 259 232 227 221 210 200 199 198 197 197 195 194 195 196 197 200 203 205 207 206 206 207 207 208 211 212 213 214 214 214 215 215 215 214 210 208 206 206 206 206 207 208 209
225 268 238 169 168 165 182 209 172 118 158 223 127 118 220 201 174 219 247 236 241 302 291 238 211 235 252 266 261 251 262 275 274 274 284 278 266 264 272 274 271 275 299 319 248 249 248 229 209 203 202 201 198 194 195 197 197 200 204 206 208 210 209 208 208 209 211 212 212 213 214 215 215 215 216 217 216 214 211 208 207 208 209 209 209 209
235 271 259 113 244 183 186 203 168 160 200 183 130 183 216 163 158 224 274 295 81 261 259 250 255 274 302 283 277 252 247 260 273 266 251 255 263 266 269 270 272 283 300 289 251 254 260 251 232 216 208 203 198 196 199 201 201 204 205 206 209 211 210 210 212 213 213 213 213 214 215 215 215 215 217 217 217 216 213 210 209 209 209 210 210 209
237 272 259 184 220 249 275 7 300 270 162 133 175 207 165 82 128 172 247 319 250 247 254 259 264 273 289 279 308 24 320 286 275 262 255 271 283 284 274 272 276 280 286 275 256 253 252 246 239 226 215 210 206 203 205 206 206 207 208 209 210 210 210 212 213 214 214 213 214 215 215 215 216 216 218 218 218 216 214 212 210 209 209 210 210 209
213 254 267 199 206 302 21 15 297 314 68 135 225 228 118 171 232 163 177 211 228 243 245 242 257 267 249 248 275 298 284 281 281 290 301 290 285 283 282 286 289 290 295 282 259 250 243 234 232 225 217 216 216 213 211 210 209 211 213 214 213 213 214 214 213 213 215 215 216 216 216 217 217 217 218 218 217 216 215 215 212 209 209 209 208 208
162 234 261 14 351 321 28 196 215 256 312 14 307 304 39 197 200 179 188 178 218 242 247 236 244 257 245 230 230 240 241 241 260 293 302 285 283 281 277 282 286 289 291 281 265 252 239 233 234 228 220 217 219 220 217 213 212 214 216 216 217 218 218 217 216 215 216 216 217 218 217 217 217 217 217 217 217 216 217 217 214 212 210 207 206 207
15 243 250 344 339 246 194 210 191 195 220 205 237 251 257 238 204 240 239 172 216 241 248 245 239 244 253 219 199 221 226 207 212 254 288 291 290 280 272 267 269 275 278 276 270 260 245 239 239 235 230 224 222 225 221 217 217 217 217 218 218 220 219 219 218 217 217 218 217 218 217 218 217 216 215 215 216 217 218 217 216 214 211 208 206 205
334 262 265 274 254 233 236 229 198 202 205 188 206 223 223 228 242 267 251 222 219 240 245 253 253 248 264 273 242 219 214 221 225 250 279 283 278 276 274 266 262 265 268 270 269 264 252 246 244 237 231 222 220 223 222 221 221 218 219 220 219 219 220 221 220 219 220 219 217 218 218 218 217 215 214 214 214 217 218 218 216 214 212 210 208 206
153 172 282 263 252 254 273 275 229 215 210 195 211 214 215 222 217 238 248 240 244 266 263 266 266 244 210 283 284 276 265 266 263 259 269 273 269 265 264 264 265 263 263 267 269 265 253 252 262 255 232 218 218 223 225 224 222 220 222 222 220 220 222 223 223 222 221 219 219 220 219 218 216 215 214 213 214 216 218 218 216 213 212 211 209 206
142 130 240 263 282 283 285 293 277 224 191 224 238 206 204 220 220 232 244 246 264 271 273 269 261 243 102 293 285 287 285 282 274 253 253 263 265 258 258 265 267 264 269 272 270 269 263 262 270 258 237 222 223 228 228 227 226 226 228 226 223 225 226 225 224 223 221 220 220 220 218 217 216 214 213 213 215 216 216 216 214 213 212 211 208 206
202 176 152 231 287 281 281 295 282 237 202 229 237 220 223 230 240 254 258 219 242 237 238 253 256 246 258 270 272 278 280 279 276 263 243 241 256 260 256 258 260 263 269 272 277 288 282 271 260 251 247 238 232 232 229 228 229 230 230 228 227 229 231 227 224 223 221 220 220 218 217 216 214 213 213 214 215 215 215 213 212 211 210 209 209 207
216 200 172 215 246 254 258 252 231 213 214 215 207 218 226 224 230 247 255 247 248 233 227 242 256 251 249 254 261 266 269 273 277 274 261 239 243 256 256 257 262 263 261 263 275 287 269 259 247 243 241 229 225 225 225 227 231 231 232 233 232 232 232 229 224 222 221 220 219 217 216 215 213 214 215 215 215 214 213 211 210 210 209 207 208 206
256 216 208 227 234 238 247 247 236 226 232 238 235 232 235 233 233 240 247 248 253 254 244 241 248 253 249 246 252 258 262 267 271 275 276 269 257 259 258 254 256 257 256 255 259 267 266 263 256 250 243 235 228 225 226 229 233 235 237 239 239 235 233 229 223 221 220 219 218 217 216 214 214 215 216 216 215 213 211 209 208 208 207 206 205 204
256 244 228 234 238 240 246 252 252 248 244 245 245 244 245 245 243 244 248 249 252 258 256 243 241 249 248 243 249 256 260 262 265 271 278 280 278 272 262 254 252 256 266 267 259 263 263 261 262 259 252 245 237 237 241 245 248 249 247 247 245 238 232 228 222 220 219 218 217 218 217 216 216 216 216 215 214 212 210 208 207 207 205 204 203 203
214 241 236 239 244 243 245 251 252 252 251 247 245 247 248 248 248 246 247 247 246 249 257 254 248 249 248 244 248 253 256 258 262 269 275 281 284 279 272 271 271 278 294 295 278 275 275 277 283 284 281 280 278 275 273 267 260 256 252 252 248 239 233 227 220 219 219 217 218 219 218 217 217 216 215 213 212 210 209 207 206 204 203 202 202 203
228 236 234 243 250 246 244 247 248 249 253 250 246 245 245 246 247 248 249 249 248 250 256 258 256 255 254 251 251 252 255 259 263 268 273 276 277 277 282 291 302 311 304 289 284 290 296 295 296 295 294 295 293 284 275 263 255 254 255 254 249 240 233 225 218 218 218 217 220 221 219 217 216 213 211 210 209 209 207 205 204 202 201 201 201 200
254 243 240 250 255 247 243 246 247 246 248 250 248 245 245 246 247 249 252 252 251 254 255 255 257 258 256 254 254 255 259 263 267 269 270 273 281 294 314 332 345 347 340 330 326 328 328 317 307 301 295 290 281 271 261 259 259 259 259 257 250 241 233 223 217 218 217 217 220 220 217 214 212 210 209 208 207 207 205 203 201 200 199 199 198 199
271 275 271 269 266 255 246 245 247 248 247 246 247 246 244 243 243 244 245 245 247 253 255 255 256 257 257 259 261 264 268 270 274 278 282 294 319 355 15 15 12 7 359 355 354 352 348 342 333 320 309 298 289 281 272 270 270 267 261 256 250 243 231 220 217 218 219 220 220 217 214 211 208 207 207 206 205 205 203 201 199 197 197 197 197 197
253 272 284 273 271 272 260 256 260 258 249 245 243 242 243 244 246 247 247 246 246 248 254 257 259 280 316 332 332 318 308 301 298 300 316 348 9 27 30 16 9 3 356 353 353 349 345 345 342 332 325 316 308 302 295 289 283 279 274 266 256 245 228 219 218 218 219 221 219 214 211 208 205 205 205 204 204 202 199 198 196 196 196 196 196 195
260 267 274 271 274 282 284 292 291 271 257 255 231 229 238 243 247 249 249 251 252 260 286 300 351 17 18 21 11 349 332 321 317 347 47 37 16 10 8 6 3 353 348 346 344 341 337 337 336 331 329 325 321 318 315 309 300 289 285 282 271 249 231 221 218 218 219 219 216 212 209 206 205 205 204 203 201 198 196 196 196 196 195 194 193 193
261 265 267 266 269 275 281 285 275 260 261 269 225 224 247 251 257 263 264 272 310 353 357 12 36 30 17 7 359 349 328 316 308 67 63 38 18 4 353 350 349 343 340 337 335 334 332 332 333 329 328 326 323 322 323 323 318 305 294 289 279 258 238 225 219 219 219 216 213 209 206 205 204 203 202 200 197 195 195 195 194 194 194 193 193 194
247 256 261 260 263 272 271 261 259 267 280 269 332 10 355 342 337 316 297 342 24 12 353 11 27 20 10 358 353 347 333 321 290 130 49 24 12 360 346 339 336 333 331 329 328 327 325 325 326 323 323 324 323 322 324 328 328 319 305 295 281 261 243 228 222 221 218 215 211 208 206 205 202 201 198 195 193 193 194 194 194 193 192 192 192 193
232 243 255 252 245 253 259 256 263 277 277 266 318 3 5 353 336 319 282 50 35 7 352 11 9 3 4 355 347 345 341 336 315 343 12 6 355 347 340 329 324 323 323 323 321 321 322 323 325 325 325 325 325 326 328 332 331 323 311 302 285 263 243 227 224 225 221 217 214 211 208 205 201 198 195 192 192 193 194 194 193 192 190 189 190 191
229 230 241 252 241 252 268 270 275 275 273 302 335 322 333 322 300 283 239 157 46 17 1 12 4 352 350 347 345 346 347 347 335 327 344 346 338 336 332 325 325 327 327 327 325 326 329 331 331 331 332 331 330 331 333 334 332 324 312 304 288 266 246 230 231 231 225 222 220 214 210 205 201 198 194 193 194 194 194 193 192 192 191 190 190 191
295 237 236 255 257 259 266 269 274 271 274 31 339 312 329 321 303 284 221 174 58 22 349 10 6 342 336 336 338 348 354 345 324 315 328 330 326 328 329 328 331 331 329 331 331 331 332 333 333 335 337 337 334 334 336 336 333 323 312 306 297 272 250 242 241 237 232 230 227 219 214 208 203 200 197 196 197 195 193 191 191 190 190 191 191 192
344 299 256 259 260 266 265 260 266 268 65 29 339 323 329 315 306 286 231 251 34 16 288 9 340 305 311 319 320 344 350 319 303 306 314 316 314 321 329 330 330 330 331 333 334 332 330 331 335 337 338 336 333 333 334 335 333 324 313 311 305 279 266 263 258 249 240 235 229 222 217 210 205 203 200 198 197 195 193 191 190 188 188 189 190 191
337 307 279 267 268 276 273 271 280 258 121 38 353 338 331 324 330 309 281 315 347 314 234 244 291 272 273 283 286 306 287 269 278 291 300 310 317 324 329 326 324 325 325 327 329 329 328 329 331 332 330 330 331 331 332 334 332 323 316 316 304 288 289 289 280 265 250 238 229 223 216 210 207 205 202 199 196 194 193 192 190 188 187 187 188 188
289 265 265 263 273 283 274 279 287 259 141 29 4 348 351 2 341 299 295 292 293 285 269 264 265 257 255 259 260 275 275 269 274 286 302 319 322 320 322 322 322 321 321 323 324 325 325 324 325 326 326 327 329 329 330 332 328 319 316 313 301 299 304 302 287 270 254 240 232 224 215 210 207 204 202 200 195 192 192 191 190 189 186 185 185 185
278 282 279 252 259 280 266 263 268 257 322 0 353 346 24 39 272 282 288 241 236 257 269 270 257 237 249 262 265 270 276 280 282 290 306 314 313 313 315 317 318 318 320 320 320 321 323 320 319 321 322 324 325 326 327 328 323 316 313 306 304 308 309 301 286 269 252 240 231 224 215 209 206 203 201 199 196 192 190 188 187 187 185 184 183 182
260 252 262 258 268 286 255 246 266 289 319 336 336 313 300 295 276 277 280 256 236 241 260 274 263 236 240 259 272 275 279 286 290 296 300 299 303 307 307 311 315 316 317 316 317 320 322 318 317 318 317 319 322 322 322 321 315 310 305 302 306 309 306 298 289 271 255 243 231 223 215 208 206 204 201 199 195 191 188 185 184 184 185 185 183 182
232 215 247 267 267 252 245 259 280 294 300 298 281 264 285 302 301 275 248 253 266 260 253 278 279 274 263 254 265 275 279 286 294 299 298 297 300 301 304 310 312 309 311 312 313 318 321 318 316 316 314 315 318 319 318 314 308 300 296 299 304 303 297 292 282 266 255 244 231 223 214 206 204 204 202 199 195 191 188 185 182 183 185 186 186 185
255 262 273 273 258 259 260 262 269 279 281 276 277 285 294 300 294 265 229 233 252 241 217 235 258 276 281 273 276 280 281 289 296 297 298 303 304 303 304 306 306 307 309 310 312 317 318 316 314 313 311 312 314 315 313 309 303 295 293 298 301 298 291 282 269 259 252 240 228 221 212 205 202 200 201 201 199 198 194 189 185 185 187 189 188 187
255 238 237 252 264 269 267 263 266 271 274 277 283 291 290 280 269 253 221 210 212 213 239 264 269 279 285 288 293 292 292 297 300 300 302 306 304 305 307 305 305 309 309 309 312 314 315 314 312 311 309 308 309 310 308 305 300 296 295 298 299 296 289 275 262 255 247 236 226 217 209 205 201 198 199 200 200 202 201 196 192 189 189 190 188 185
245 187 185 235 248 248 257 269 274 273 274 278 281 283 279 261 246 242 223 190 175 262 279 280 285 292 295 297 300 303 303 302 300 301 306 307 303 304 305 303 304 308 308 309 310 312 313 311 307 307 308 306 306 307 305 302 298 297 297 298 297 294 286 273 262 255 247 237 225 214 209 206 202 199 199 199 200 201 202 201 199 198 198 195 189 187
255 269 229 241 252 261 268 273 276 278 278 277 273 267 250 223 220 234 247 263 355 306 293 293 295 300 303 299 301 304 300 296 299 306 307 305 301 299 298 300 303 304 303 304 305 307 307 304 303 306 306 302 302 303 302 300 299 299 299 299 297 293 282 270 264 255 247 238 224 215 211 206 203 202 200 200 201 203 204 204 205 208 213 209 201 198
219 251 250 249 256 259 259 259 264 271 275 276 278 269 233 205 202 218 244 275 283 272 278 290 292 294 293 289 292 298 292 290 297 302 299 294 293 294 295 297 300 300 298 299 302 303 301 301 305 307 303 299 299 299 298 298 299 299 299 300 299 294 280 269 262 252 242 234 224 217 212 206 204 203 201 200 202 204 207 209 210 214 220 222 217 212
222 238 244 248 249 250 253 254 257 263 265 270 277 269 227 187 179 227 246 266 268 263 274 289 291 293 292 286 283 284 284 287 293 295 291 287 285 286 291 293 293 293 293 295 296 297 299 304 307 305 300 298 298 296 296 296 296 295 294 295 297 296 285 270 257 247 240 233 225 220 213 207 204 202 200 201 202 201 203 209 212 216 220 222 220 215